Year,Month,Day,Hour,Minute,Value (Times are PST for temperature in C)
2009,09,12,00,00,14.00
2009,09,12,00,01,14.00
2009,09,12,00,02,13.90
2009,09,12,00,03,13.90
2009,09,12,00,04,13.90
2009,09,12,00,05,13.90
2009,09,12,00,06,13.90
2009,09,12,00,07,13.90
2009,09,12,00,08,13.90
2009,09,12,00,09,13.90
2009,09,12,00,10,13.90
2009,09,12,00,11,13.80
2009,09,12,00,12,13.80
2009,09,12,00,13,13.80
2009,09,12,00,14,13.80
2009,09,12,00,15,13.80
2009,09,12,00,16,13.80
2009,09,12,00,17,13.80
2009,09,12,00,18,13.80
2009,09,12,00,19,13.80
2009,09,12,00,20,13.80
2009,09,12,00,21,13.80
2009,09,12,00,22,13.90
2009,09,12,00,23,13.90
2009,09,12,00,24,13.90
2009,09,12,00,25,13.90
2009,09,12,00,26,13.90
2009,09,12,00,27,13.90
2009,09,12,00,28,13.90
2009,09,12,00,29,13.90
2009,09,12,00,30,13.90
2009,09,12,00,31,13.90
2009,09,12,00,32,13.90
2009,09,12,00,33,13.90
2009,09,12,00,34,13.90
2009,09,12,00,35,13.90
2009,09,12,00,36,13.90
2009,09,12,00,37,13.90
2009,09,12,00,38,13.90
2009,09,12,00,39,13.80
2009,09,12,00,40,13.80
2009,09,12,00,41,13.80
2009,09,12,00,42,13.80
2009,09,12,00,43,13.70
2009,09,12,00,44,13.70
2009,09,12,00,45,13.70
2009,09,12,00,46,13.70
2009,09,12,00,47,13.70
2009,09,12,00,48,13.70
2009,09,12,00,49,13.70
2009,09,12,00,50,13.60
2009,09,12,00,51,13.60
2009,09,12,00,52,13.60
2009,09,12,00,53,13.60
2009,09,12,00,54,13.60
2009,09,12,00,55,13.60
2009,09,12,00,56,13.60
2009,09,12,00,57,13.60
2009,09,12,00,58,13.60
2009,09,12,00,59,13.60
2009,09,12,01,00,13.60
2009,09,12,01,01,13.60
2009,09,12,01,02,13.60
2009,09,12,01,03,13.60
2009,09,12,01,04,13.60
2009,09,12,01,05,13.60
2009,09,12,01,06,13.60
2009,09,12,01,07,13.60
2009,09,12,01,08,13.60
2009,09,12,01,09,13.60
2009,09,12,01,10,13.60
2009,09,12,01,11,13.60
2009,09,12,01,12,13.50
2009,09,12,01,13,13.40
2009,09,12,01,14,13.40
2009,09,12,01,15,13.40
2009,09,12,01,16,13.40
2009,09,12,01,17,13.40
2009,09,12,01,18,13.40
2009,09,12,01,19,13.40
2009,09,12,01,20,13.40
2009,09,12,01,21,13.40
2009,09,12,01,22,13.40
2009,09,12,01,23,13.40
2009,09,12,01,24,13.40
2009,09,12,01,25,13.40
2009,09,12,01,26,13.40
2009,09,12,01,27,13.40
2009,09,12,01,28,13.30
2009,09,12,01,29,13.30
2009,09,12,01,30,13.30
2009,09,12,01,31,13.30
2009,09,12,01,32,13.30
2009,09,12,01,33,13.30
2009,09,12,01,34,13.30
2009,09,12,01,35,13.30
2009,09,12,01,36,13.30
2009,09,12,01,37,13.30
2009,09,12,01,38,13.40
2009,09,12,01,39,13.40
2009,09,12,01,40,13.40
2009,09,12,01,41,13.40
2009,09,12,01,42,13.30
2009,09,12,01,43,13.30
2009,09,12,01,44,13.30
2009,09,12,01,45,13.30
2009,09,12,01,46,13.30
2009,09,12,01,47,13.40
2009,09,12,01,48,13.50
2009,09,12,01,49,13.60
2009,09,12,01,50,13.80
2009,09,12,01,51,13.90
2009,09,12,01,52,14.00
2009,09,12,01,53,14.10
2009,09,12,01,54,14.20
2009,09,12,01,55,14.20
2009,09,12,01,56,14.20
2009,09,12,01,57,14.20
2009,09,12,01,58,14.10
2009,09,12,01,59,14.10
2009,09,12,02,00,14.10
2009,09,12,02,01,14.00
2009,09,12,02,02,14.00
2009,09,12,02,03,13.90
2009,09,12,02,04,13.90
2009,09,12,02,05,13.80
2009,09,12,02,06,13.80
2009,09,12,02,07,13.80
2009,09,12,02,08,13.70
2009,09,12,02,09,13.70
2009,09,12,02,10,13.70
2009,09,12,02,11,13.60
2009,09,12,02,12,13.60
2009,09,12,02,13,13.50
2009,09,12,02,14,13.50
2009,09,12,02,15,13.40
2009,09,12,02,16,13.40
2009,09,12,02,17,13.40
2009,09,12,02,18,13.40
2009,09,12,02,19,13.40
2009,09,12,02,20,13.50
2009,09,12,02,21,13.60
2009,09,12,02,22,13.70
2009,09,12,02,23,13.80
2009,09,12,02,24,13.90
2009,09,12,02,25,14.00
2009,09,12,02,26,14.00
2009,09,12,02,27,14.10
2009,09,12,02,28,14.20
2009,09,12,02,29,14.20
2009,09,12,02,30,14.10
2009,09,12,02,31,14.10
2009,09,12,02,32,14.00
2009,09,12,02,33,13.90
2009,09,12,02,34,13.90
2009,09,12,02,35,13.80
2009,09,12,02,36,13.80
2009,09,12,02,37,13.80
2009,09,12,02,38,13.70
2009,09,12,02,39,13.70
2009,09,12,02,40,13.70
2009,09,12,02,41,13.70
2009,09,12,02,42,13.80
2009,09,12,02,43,13.80
2009,09,12,02,44,13.80
2009,09,12,02,45,13.80
2009,09,12,02,46,13.80
2009,09,12,02,47,13.90
2009,09,12,02,48,13.90
2009,09,12,02,49,13.90
2009,09,12,02,50,13.90
2009,09,12,02,51,13.90
2009,09,12,02,52,13.90
2009,09,12,02,53,13.90
2009,09,12,02,54,13.90
2009,09,12,02,55,13.90
2009,09,12,02,56,13.80
2009,09,12,02,57,13.80
2009,09,12,02,58,13.80
2009,09,12,02,59,13.70
2009,09,12,03,00,13.70
2009,09,12,03,01,13.60
2009,09,12,03,02,13.60
2009,09,12,03,03,13.50
2009,09,12,03,04,13.50
2009,09,12,03,05,13.40
2009,09,12,03,06,13.40
2009,09,12,03,07,13.30
2009,09,12,03,08,13.30
2009,09,12,03,09,13.30
2009,09,12,03,10,13.30
2009,09,12,03,11,13.20
2009,09,12,03,12,13.20
2009,09,12,03,13,13.20
2009,09,12,03,14,13.20
2009,09,12,03,15,13.20
2009,09,12,03,16,13.10
2009,09,12,03,17,13.10
2009,09,12,03,18,13.10
2009,09,12,03,19,13.10
2009,09,12,03,20,13.10
2009,09,12,03,21,13.10
2009,09,12,03,22,13.10
2009,09,12,03,23,13.10
2009,09,12,03,24,13.10
2009,09,12,03,25,13.00
2009,09,12,03,26,13.00
2009,09,12,03,27,12.90
2009,09,12,03,28,12.90
2009,09,12,03,29,12.90
2009,09,12,03,30,12.90
2009,09,12,03,31,12.90
2009,09,12,03,32,12.90
2009,09,12,03,33,12.90
2009,09,12,03,34,12.90
2009,09,12,03,35,12.90
2009,09,12,03,36,12.90
2009,09,12,03,37,12.90
2009,09,12,03,38,13.00
2009,09,12,03,39,13.00
2009,09,12,03,40,13.00
2009,09,12,03,41,13.00
2009,09,12,03,42,13.00
2009,09,12,03,43,12.90
2009,09,12,03,44,12.90
2009,09,12,03,45,12.90
2009,09,12,03,46,12.90
2009,09,12,03,47,12.90
2009,09,12,03,48,12.90
2009,09,12,03,49,12.90
2009,09,12,03,50,12.90
2009,09,12,03,51,12.90
2009,09,12,03,52,12.90
2009,09,12,03,53,12.90
2009,09,12,03,54,12.80
2009,09,12,03,55,12.80
2009,09,12,03,56,12.80
2009,09,12,03,57,12.70
2009,09,12,03,58,12.70
2009,09,12,03,59,12.70
2009,09,12,04,00,12.70
2009,09,12,04,01,12.70
2009,09,12,04,02,12.70
2009,09,12,04,03,12.70
2009,09,12,04,05,12.70
2009,09,12,04,09,12.80
2009,09,12,04,10,12.80
2009,09,12,04,13,12.70
2009,09,12,04,16,12.70
2009,09,12,04,19,12.70
2009,09,12,04,21,12.60
2009,09,12,04,22,12.60
2009,09,12,04,24,12.60
2009,09,12,04,25,12.60
2009,09,12,04,27,12.60
2009,09,12,04,28,12.60
2009,09,12,04,30,12.60
2009,09,12,04,31,12.60
2009,09,12,04,32,12.60
2009,09,12,04,33,12.60
2009,09,12,04,34,12.60
2009,09,12,04,35,12.60
2009,09,12,04,36,12.60
2009,09,12,04,37,12.60
2009,09,12,04,38,12.60
2009,09,12,04,39,12.60
2009,09,12,04,40,12.60
2009,09,12,04,41,12.60
2009,09,12,04,42,12.60
2009,09,12,04,43,12.60
2009,09,12,04,44,12.50
2009,09,12,04,45,12.50
2009,09,12,04,46,12.40
2009,09,12,04,47,12.40
2009,09,12,04,48,12.40
2009,09,12,04,49,12.30
2009,09,12,04,50,12.30
2009,09,12,04,51,12.30
2009,09,12,04,52,12.30
2009,09,12,04,53,12.30
2009,09,12,04,54,12.30
2009,09,12,04,55,12.30
2009,09,12,04,56,12.30
2009,09,12,04,57,12.30
2009,09,12,04,58,12.30
2009,09,12,04,59,12.30
2009,09,12,05,00,12.30
2009,09,12,05,01,12.30
2009,09,12,05,02,12.30
2009,09,12,05,03,12.30
2009,09,12,05,04,12.30
2009,09,12,05,05,12.30
2009,09,12,05,06,12.30
2009,09,12,05,07,12.30
2009,09,12,05,08,12.20
2009,09,12,05,09,12.20
2009,09,12,05,10,12.20
2009,09,12,05,11,12.20
2009,09,12,05,12,12.20
2009,09,12,05,13,12.20
2009,09,12,05,14,12.10
2009,09,12,05,15,12.10
2009,09,12,05,17,12.10
2009,09,12,05,18,12.10
2009,09,12,05,19,12.10
2009,09,12,05,20,12.10
2009,09,12,05,21,12.10
2009,09,12,05,22,12.10
2009,09,12,05,23,12.10
2009,09,12,05,24,12.10
2009,09,12,05,25,12.10
2009,09,12,05,26,12.10
2009,09,12,05,27,12.10
2009,09,12,05,28,12.10
2009,09,12,05,29,12.10
2009,09,12,05,30,12.10
2009,09,12,05,31,12.10
2009,09,12,05,32,12.10
2009,09,12,05,33,12.10
2009,09,12,05,34,12.00
2009,09,12,05,35,12.00
2009,09,12,05,36,12.00
2009,09,12,05,37,12.00
2009,09,12,05,38,12.00
2009,09,12,05,39,12.00
2009,09,12,05,40,12.00
2009,09,12,05,41,12.00
2009,09,12,05,42,12.00
2009,09,12,05,43,12.00
2009,09,12,05,44,12.00
2009,09,12,05,45,12.00
2009,09,12,05,46,11.90
2009,09,12,05,47,11.90
2009,09,12,05,48,11.90
2009,09,12,05,49,11.90
2009,09,12,05,50,11.90
2009,09,12,05,51,11.90
2009,09,12,05,52,11.90
2009,09,12,05,53,11.90
2009,09,12,05,54,11.90
2009,09,12,05,55,11.90
2009,09,12,05,56,11.90
2009,09,12,05,57,11.90
2009,09,12,05,58,11.90
2009,09,12,05,59,11.90
2009,09,12,06,00,11.90
2009,09,12,06,01,11.90
2009,09,12,06,02,11.90
2009,09,12,06,03,12.00
2009,09,12,06,04,12.00
2009,09,12,06,05,12.00
2009,09,12,06,06,12.00
2009,09,12,06,07,12.00
2009,09,12,06,08,11.90
2009,09,12,06,09,11.90
2009,09,12,06,10,11.90
2009,09,12,06,11,11.90
2009,09,12,06,12,11.90
2009,09,12,06,13,11.90
2009,09,12,06,14,11.90
2009,09,12,06,15,11.80
2009,09,12,06,16,11.80
2009,09,12,06,17,11.80
2009,09,12,06,18,11.80
2009,09,12,06,19,11.70
2009,09,12,06,20,11.70
2009,09,12,06,21,11.70
2009,09,12,06,22,11.70
2009,09,12,06,23,11.80
2009,09,12,06,24,11.80
2009,09,12,06,25,11.80
2009,09,12,06,26,11.80
2009,09,12,06,27,11.80
2009,09,12,06,28,11.80
2009,09,12,06,29,11.80
2009,09,12,06,30,11.80
2009,09,12,06,31,11.80
2009,09,12,06,32,11.80
2009,09,12,06,33,11.80
2009,09,12,06,34,11.80
2009,09,12,06,35,11.70
2009,09,12,06,36,11.70
2009,09,12,06,37,11.70
2009,09,12,06,38,11.80
2009,09,12,06,39,11.80
2009,09,12,06,40,11.80
2009,09,12,06,41,11.80
2009,09,12,06,42,11.80
2009,09,12,06,43,11.80
2009,09,12,06,44,11.90
2009,09,12,06,45,11.90
2009,09,12,06,46,11.90
2009,09,12,06,47,11.90
2009,09,12,06,48,11.90
2009,09,12,06,49,11.80
2009,09,12,06,50,11.80
2009,09,12,06,51,11.80
2009,09,12,06,52,11.70
2009,09,12,06,53,11.70
2009,09,12,06,54,11.70
2009,09,12,06,55,11.70
2009,09,12,06,56,11.70
2009,09,12,06,57,11.70
2009,09,12,06,58,11.80
2009,09,12,06,59,11.80
2009,09,12,07,00,11.80
2009,09,12,07,01,11.80
2009,09,12,07,02,11.80
2009,09,12,07,03,11.80
2009,09,12,07,04,11.80
2009,09,12,07,05,11.80
2009,09,12,07,06,11.80
2009,09,12,07,07,11.70
2009,09,12,07,08,11.70
2009,09,12,07,09,11.70
2009,09,12,07,10,11.70
2009,09,12,07,11,11.70
2009,09,12,07,12,11.60
2009,09,12,07,13,11.60
2009,09,12,07,14,11.70
2009,09,12,07,15,11.70
2009,09,12,07,16,11.70
2009,09,12,07,17,11.70
2009,09,12,07,18,11.70
2009,09,12,07,19,11.70
2009,09,12,07,20,11.70
2009,09,12,07,21,11.70
2009,09,12,07,22,11.80
2009,09,12,07,23,11.90
2009,09,12,07,24,12.00
2009,09,12,07,25,12.10
2009,09,12,07,26,12.10
2009,09,12,07,27,12.20
2009,09,12,07,28,12.20
2009,09,12,07,29,12.20
2009,09,12,07,30,12.20
2009,09,12,07,31,12.20
2009,09,12,07,32,12.20
2009,09,12,07,33,12.20
2009,09,12,07,34,12.20
2009,09,12,07,35,12.20
2009,09,12,07,36,12.20
2009,09,12,07,37,12.20
2009,09,12,07,38,12.30
2009,09,12,07,39,12.30
2009,09,12,07,40,12.40
2009,09,12,07,41,12.40
2009,09,12,07,42,12.50
2009,09,12,07,43,12.60
2009,09,12,07,44,12.70
2009,09,12,07,45,12.70
2009,09,12,07,46,12.80
2009,09,12,07,47,12.80
2009,09,12,07,48,12.80
2009,09,12,07,49,12.80
2009,09,12,07,50,12.80
2009,09,12,07,51,12.80
2009,09,12,07,52,12.80
2009,09,12,07,53,12.90
2009,09,12,07,54,12.90
2009,09,12,07,55,12.90
2009,09,12,07,56,12.90
2009,09,12,07,57,13.00
2009,09,12,07,58,13.00
2009,09,12,07,59,13.10
2009,09,12,08,00,13.20
2009,09,12,08,01,13.20
2009,09,12,08,02,13.20
2009,09,12,08,03,13.30
2009,09,12,08,04,13.30
2009,09,12,08,05,13.30
2009,09,12,08,06,13.40
2009,09,12,08,07,13.40
2009,09,12,08,08,13.40
2009,09,12,08,09,13.50
2009,09,12,08,10,13.60
2009,09,12,08,11,13.60
2009,09,12,08,12,13.70
2009,09,12,08,13,13.70
2009,09,12,08,14,13.80
2009,09,12,08,15,13.90
2009,09,12,08,16,14.00
2009,09,12,08,17,14.10
2009,09,12,08,18,14.20
2009,09,12,08,19,14.30
2009,09,12,08,20,14.40
2009,09,12,08,21,14.40
2009,09,12,08,22,14.60
2009,09,12,08,23,14.70
2009,09,12,08,24,14.80
2009,09,12,08,25,14.90
2009,09,12,08,26,15.00
2009,09,12,08,27,15.00
2009,09,12,08,28,15.00
2009,09,12,08,29,15.10
2009,09,12,08,30,15.30
2009,09,12,08,31,15.30
2009,09,12,08,32,15.40
2009,09,12,08,33,15.50
2009,09,12,08,34,15.60
2009,09,12,08,35,15.70
2009,09,12,08,36,15.80
2009,09,12,08,37,15.90
2009,09,12,08,38,16.00
2009,09,12,08,39,16.10
2009,09,12,08,40,16.20
2009,09,12,08,41,16.30
2009,09,12,08,42,16.40
2009,09,12,08,43,16.40
2009,09,12,08,44,16.50
2009,09,12,08,45,16.60
2009,09,12,08,46,16.70
2009,09,12,08,47,16.80
2009,09,12,08,48,16.90
2009,09,12,08,49,17.10
2009,09,12,08,50,17.20
2009,09,12,08,51,17.40
2009,09,12,08,52,17.60
2009,09,12,08,53,17.70
2009,09,12,08,54,17.80
2009,09,12,08,55,17.90
2009,09,12,08,56,18.10
2009,09,12,08,57,18.20
2009,09,12,08,58,18.30
2009,09,12,08,59,18.40
2009,09,12,09,00,18.50
2009,09,12,09,01,18.60
2009,09,12,09,02,18.60
2009,09,12,09,03,18.70
2009,09,12,09,04,18.90
2009,09,12,09,05,19.00
2009,09,12,09,06,19.20
2009,09,12,09,07,19.30
2009,09,12,09,08,19.30
2009,09,12,09,09,19.20
2009,09,12,09,10,19.10
2009,09,12,09,11,19.00
2009,09,12,09,12,18.90
2009,09,12,09,13,18.90
2009,09,12,09,14,18.80
2009,09,12,09,15,18.80
2009,09,12,09,16,18.80
2009,09,12,09,17,18.80
2009,09,12,09,18,18.80
2009,09,12,09,19,18.90
2009,09,12,09,20,18.90
2009,09,12,09,21,18.90
2009,09,12,09,22,19.00
2009,09,12,09,23,19.00
2009,09,12,09,24,19.00
2009,09,12,09,25,19.00
2009,09,12,09,26,19.00
2009,09,12,09,27,19.00
2009,09,12,09,29,18.90
2009,09,12,09,30,18.90
2009,09,12,09,31,18.90
2009,09,12,09,32,18.90
2009,09,12,09,33,18.80
2009,09,12,09,34,18.80
2009,09,12,09,35,18.80
2009,09,12,09,36,18.80
2009,09,12,09,37,18.80
2009,09,12,09,38,18.80
2009,09,12,09,39,18.80
2009,09,12,09,40,18.80
2009,09,12,09,41,18.80
2009,09,12,09,42,18.80
2009,09,12,09,43,18.80
2009,09,12,09,44,18.80
2009,09,12,09,45,18.80
2009,09,12,09,46,18.80
2009,09,12,09,47,18.70
2009,09,12,09,48,18.70
2009,09,12,09,49,18.80
2009,09,12,09,50,18.80
2009,09,12,09,51,18.90
2009,09,12,09,52,19.00
2009,09,12,09,53,19.10
2009,09,12,09,54,19.10
2009,09,12,09,55,19.20
2009,09,12,09,56,19.30
2009,09,12,09,57,19.30
2009,09,12,09,58,19.30
2009,09,12,09,59,19.40
2009,09,12,10,00,19.40
2009,09,12,10,01,19.40
2009,09,12,10,02,19.50
2009,09,12,10,03,19.60
2009,09,12,10,04,19.60
2009,09,12,10,05,19.70
2009,09,12,10,06,19.80
2009,09,12,10,07,19.80
2009,09,12,10,08,19.90
2009,09,12,10,09,19.90
2009,09,12,10,10,20.00
2009,09,12,10,11,20.00
2009,09,12,10,12,20.10
2009,09,12,10,13,20.20
2009,09,12,10,14,20.30
2009,09,12,10,15,20.40
2009,09,12,10,16,20.40
2009,09,12,10,17,20.60
2009,09,12,10,18,20.60
2009,09,12,10,19,20.70
2009,09,12,10,20,20.80
2009,09,12,10,21,20.90
2009,09,12,10,22,21.00
2009,09,12,10,23,21.20
2009,09,12,10,24,21.30
2009,09,12,10,25,21.50
2009,09,12,10,26,21.60
2009,09,12,10,27,21.70
2009,09,12,10,28,21.80
2009,09,12,10,29,22.00
2009,09,12,10,30,22.10
2009,09,12,10,31,22.20
2009,09,12,10,32,22.30
2009,09,12,10,33,22.40
2009,09,12,10,34,22.60
2009,09,12,10,35,22.70
2009,09,12,10,36,22.70
2009,09,12,10,37,22.70
2009,09,12,10,38,22.70
2009,09,12,10,39,22.80
2009,09,12,10,40,22.80
2009,09,12,10,41,22.70
2009,09,12,10,42,22.60
2009,09,12,10,43,22.50
2009,09,12,10,44,22.40
2009,09,12,10,45,22.40
2009,09,12,10,46,22.40
2009,09,12,10,47,22.40
2009,09,12,10,48,22.30
2009,09,12,10,49,22.30
2009,09,12,10,50,22.30
2009,09,12,10,51,22.20
2009,09,12,10,52,22.20
2009,09,12,10,53,22.20
2009,09,12,10,54,22.30
2009,09,12,10,55,22.40
2009,09,12,10,56,22.50
2009,09,12,10,57,22.60
2009,09,12,10,58,22.70
2009,09,12,10,59,22.80
2009,09,12,11,00,22.90
2009,09,12,11,01,23.00
2009,09,12,11,02,23.10
2009,09,12,11,03,23.10
2009,09,12,11,04,23.20
2009,09,12,11,05,23.20
2009,09,12,11,06,23.20
2009,09,12,11,07,23.20
2009,09,12,11,08,23.20
2009,09,12,11,09,23.30
2009,09,12,11,10,23.30
2009,09,12,11,11,23.30
2009,09,12,11,12,23.30
2009,09,12,11,13,23.30
2009,09,12,11,14,23.30
2009,09,12,11,15,23.30
2009,09,12,11,16,23.30
2009,09,12,11,17,23.40
2009,09,12,11,18,23.40
2009,09,12,11,19,23.40
2009,09,12,11,20,23.40
2009,09,12,11,21,23.30
2009,09,12,11,22,23.30
2009,09,12,11,23,23.30
2009,09,12,11,24,23.30
2009,09,12,11,25,23.40
2009,09,12,11,26,23.40
2009,09,12,11,27,23.40
2009,09,12,11,28,23.40
2009,09,12,11,29,23.40
2009,09,12,11,30,23.40
2009,09,12,11,31,23.30
2009,09,12,11,32,23.30
2009,09,12,11,33,23.30
2009,09,12,11,34,23.40
2009,09,12,11,35,23.40
2009,09,12,11,36,23.40
2009,09,12,11,37,23.60
2009,09,12,11,38,23.60
2009,09,12,11,39,23.70
2009,09,12,11,40,23.70
2009,09,12,11,41,23.70
2009,09,12,11,42,23.70
2009,09,12,11,43,23.70
2009,09,12,11,44,23.70
2009,09,12,11,45,23.70
2009,09,12,11,46,23.60
2009,09,12,11,47,23.50
2009,09,12,11,48,23.40
2009,09,12,11,49,23.40
2009,09,12,11,50,23.30
2009,09,12,11,51,23.30
2009,09,12,11,52,23.30
2009,09,12,11,53,23.30
2009,09,12,11,54,23.30
2009,09,12,11,55,23.30
2009,09,12,11,56,23.30
2009,09,12,11,57,23.30
2009,09,12,11,58,23.20
2009,09,12,11,59,23.20
2009,09,12,12,00,23.30
2009,09,12,12,01,23.30
2009,09,12,12,02,23.40
2009,09,12,12,03,23.40
2009,09,12,12,04,23.50
2009,09,12,12,05,23.50
2009,09,12,12,06,23.50
2009,09,12,12,07,23.50
2009,09,12,12,08,23.40
2009,09,12,12,09,23.30
2009,09,12,12,10,23.30
2009,09,12,12,11,23.40
2009,09,12,12,12,23.40
2009,09,12,12,13,23.40
2009,09,12,12,14,23.40
2009,09,12,12,15,23.50
2009,09,12,12,16,23.60
2009,09,12,12,17,23.60
2009,09,12,12,18,23.60
2009,09,12,12,19,23.60
2009,09,12,12,20,23.70
2009,09,12,12,21,23.60
2009,09,12,12,22,23.60
2009,09,12,12,23,23.50
2009,09,12,12,24,23.40
2009,09,12,12,25,23.30
2009,09,12,12,26,23.20
2009,09,12,12,27,23.20
2009,09,12,12,28,23.30
2009,09,12,12,29,23.30
2009,09,12,12,30,23.30
2009,09,12,12,31,23.30
2009,09,12,12,32,23.40
2009,09,12,12,33,23.50
2009,09,12,12,34,23.60
2009,09,12,12,35,23.60
2009,09,12,12,36,23.70
2009,09,12,12,37,23.90
2009,09,12,12,38,24.00
2009,09,12,12,39,24.10
2009,09,12,12,40,24.20
2009,09,12,12,41,24.20
2009,09,12,12,42,24.30
2009,09,12,12,43,24.30
2009,09,12,12,44,24.30
2009,09,12,12,45,24.30
2009,09,12,12,46,24.40
2009,09,12,12,47,24.40
2009,09,12,12,48,24.40
2009,09,12,12,49,24.40
2009,09,12,12,50,24.50
2009,09,12,12,51,24.50
2009,09,12,12,52,24.60
2009,09,12,12,53,24.60
2009,09,12,12,54,24.60
2009,09,12,12,55,24.60
2009,09,12,12,56,24.60
2009,09,12,12,57,24.60
2009,09,12,12,58,24.60
2009,09,12,12,59,24.60
2009,09,12,13,00,24.70
2009,09,12,13,01,24.70
2009,09,12,13,02,24.80
2009,09,12,13,03,24.80
2009,09,12,13,04,24.80
2009,09,12,13,05,24.80
2009,09,12,13,06,24.80
2009,09,12,13,07,24.80
2009,09,12,13,08,24.80
2009,09,12,13,09,24.80
2009,09,12,13,10,24.90
2009,09,12,13,11,24.90
2009,09,12,13,12,24.80
2009,09,12,13,13,24.80
2009,09,12,13,14,24.80
2009,09,12,13,15,24.80
2009,09,12,13,16,24.80
2009,09,12,13,17,24.80
2009,09,12,13,18,24.70
2009,09,12,13,19,24.50
2009,09,12,13,20,24.40
2009,09,12,13,21,24.30
2009,09,12,13,22,24.30
2009,09,12,13,23,24.20
2009,09,12,13,24,24.30
2009,09,12,13,25,24.30
2009,09,12,13,26,24.30
2009,09,12,13,27,24.20
2009,09,12,13,28,24.20
2009,09,12,13,29,24.20
2009,09,12,13,30,24.30
2009,09,12,13,31,24.40
2009,09,12,13,32,24.60
2009,09,12,13,33,24.70
2009,09,12,13,34,24.80
2009,09,12,13,35,24.90
2009,09,12,13,36,24.90
2009,09,12,13,37,25.00
2009,09,12,13,38,25.00
2009,09,12,13,39,25.10
2009,09,12,13,40,25.10
2009,09,12,13,41,25.20
2009,09,12,13,42,25.20
2009,09,12,13,43,25.20
2009,09,12,13,44,25.10
2009,09,12,13,45,25.10
2009,09,12,13,46,25.10
2009,09,12,13,47,25.10
2009,09,12,13,48,25.20
2009,09,12,13,49,25.20
2009,09,12,13,50,25.20
2009,09,12,13,51,25.30
2009,09,12,13,52,25.30
2009,09,12,13,53,25.30
2009,09,12,13,54,25.40
2009,09,12,13,55,25.50
2009,09,12,13,56,25.50
2009,09,12,13,57,25.50
2009,09,12,13,58,25.60
2009,09,12,13,59,25.60
2009,09,12,14,00,25.60
2009,09,12,14,01,25.70
2009,09,12,14,02,25.70
2009,09,12,14,03,25.70
2009,09,12,14,04,25.60
2009,09,12,14,05,25.50
2009,09,12,14,06,25.40
2009,09,12,14,07,25.40
2009,09,12,14,08,25.30
2009,09,12,14,09,25.20
2009,09,12,14,10,25.20
2009,09,12,14,11,25.20
2009,09,12,14,12,25.20
2009,09,12,14,13,25.20
2009,09,12,14,14,25.20
2009,09,12,14,15,25.20
2009,09,12,14,16,25.20
2009,09,12,14,17,25.20
2009,09,12,14,18,25.20
2009,09,12,14,19,25.20
2009,09,12,14,20,25.10
2009,09,12,14,21,25.10
2009,09,12,14,22,25.20
2009,09,12,14,23,25.20
2009,09,12,14,24,25.20
2009,09,12,14,25,25.20
2009,09,12,14,26,25.10
2009,09,12,14,27,25.10
2009,09,12,14,28,25.00
2009,09,12,14,29,24.90
2009,09,12,14,30,24.90
2009,09,12,14,31,24.80
2009,09,12,14,32,24.70
2009,09,12,14,33,24.70
2009,09,12,14,34,24.60
2009,09,12,14,35,24.60
2009,09,12,14,36,24.50
2009,09,12,14,37,24.40
2009,09,12,14,38,24.40
2009,09,12,14,39,24.40
2009,09,12,14,40,24.40
2009,09,12,14,41,24.50
2009,09,12,14,42,24.50
2009,09,12,14,43,24.60
2009,09,12,14,44,24.60
2009,09,12,14,45,24.60
2009,09,12,14,46,24.70
2009,09,12,14,47,24.80
2009,09,12,14,48,24.80
2009,09,12,14,49,24.90
2009,09,12,14,50,25.00
2009,09,12,14,51,25.00
2009,09,12,14,52,25.10
2009,09,12,14,53,25.10
2009,09,12,14,54,25.10
2009,09,12,14,55,25.20
2009,09,12,14,56,25.20
2009,09,12,14,57,25.20
2009,09,12,14,58,25.10
2009,09,12,14,59,25.00
2009,09,12,15,00,24.80
2009,09,12,15,01,24.60
2009,09,12,15,02,24.40
2009,09,12,15,03,24.30
2009,09,12,15,04,24.20
2009,09,12,15,05,24.10
2009,09,12,15,06,23.90
2009,09,12,15,07,23.90
2009,09,12,15,08,23.80
2009,09,12,15,09,23.80
2009,09,12,15,10,23.80
2009,09,12,15,11,23.70
2009,09,12,15,12,23.70
2009,09,12,15,13,23.70
2009,09,12,15,14,23.70
2009,09,12,15,15,23.70
2009,09,12,15,16,23.70
2009,09,12,15,17,23.70
2009,09,12,15,18,23.70
2009,09,12,15,19,23.70
2009,09,12,15,20,23.70
2009,09,12,15,21,23.80
2009,09,12,15,22,23.80
2009,09,12,15,23,23.70
2009,09,12,15,24,23.70
2009,09,12,15,25,23.70
2009,09,12,15,26,23.70
2009,09,12,15,27,23.70
2009,09,12,15,28,23.70
2009,09,12,15,29,23.70
2009,09,12,15,30,23.60
2009,09,12,15,31,23.70
2009,09,12,15,32,23.70
2009,09,12,15,33,23.70
2009,09,12,15,34,23.70
2009,09,12,15,35,23.70
2009,09,12,15,36,23.60
2009,09,12,15,37,23.50
2009,09,12,15,38,23.40
2009,09,12,15,39,23.40
2009,09,12,15,40,23.40
2009,09,12,15,41,23.40
2009,09,12,15,42,23.40
2009,09,12,15,43,23.50
2009,09,12,15,44,23.50
2009,09,12,15,45,23.50
2009,09,12,15,46,23.50
2009,09,12,15,47,23.50
2009,09,12,15,48,23.50
2009,09,12,15,49,23.40
2009,09,12,15,50,23.30
2009,09,12,15,51,23.10
2009,09,12,15,52,23.00
2009,09,12,15,53,23.00
2009,09,12,15,54,22.90
2009,09,12,15,55,22.80
2009,09,12,15,56,22.80
2009,09,12,15,57,22.60
2009,09,12,15,58,22.60
2009,09,12,15,59,22.50
2009,09,12,16,00,22.50
2009,09,12,16,01,22.40
2009,09,12,16,02,22.40
2009,09,12,16,03,22.30
2009,09,12,16,04,22.20
2009,09,12,16,05,22.20
2009,09,12,16,06,22.20
2009,09,12,16,07,22.20
2009,09,12,16,08,22.20
2009,09,12,16,09,22.20
2009,09,12,16,10,22.20
2009,09,12,16,11,22.30
2009,09,12,16,12,22.50
2009,09,12,16,13,22.60
2009,09,12,16,14,22.60
2009,09,12,16,15,22.60
2009,09,12,16,16,22.50
2009,09,12,16,17,22.30
2009,09,12,16,18,22.20
2009,09,12,16,19,22.10
2009,09,12,16,20,22.00
2009,09,12,16,21,22.00
2009,09,12,16,22,21.90
2009,09,12,16,23,21.90
2009,09,12,16,24,21.80
2009,09,12,16,25,21.80
2009,09,12,16,26,21.70
2009,09,12,16,27,21.70
2009,09,12,16,28,21.60
2009,09,12,16,29,21.50
2009,09,12,16,30,21.50
2009,09,12,16,31,21.60
2009,09,12,16,32,21.60
2009,09,12,16,33,21.60
2009,09,12,16,34,21.60
2009,09,12,16,35,21.60
2009,09,12,16,36,21.50
2009,09,12,16,37,21.40
2009,09,12,16,38,21.40
2009,09,12,16,39,21.30
2009,09,12,16,40,21.30
2009,09,12,16,41,21.30
2009,09,12,16,42,21.20
2009,09,12,16,43,21.20
2009,09,12,16,44,21.20
2009,09,12,16,45,21.10
2009,09,12,16,46,21.10
2009,09,12,16,47,21.10
2009,09,12,16,48,21.10
2009,09,12,16,49,21.10
2009,09,12,16,50,21.10
2009,09,12,16,51,21.10
2009,09,12,16,52,21.10
2009,09,12,16,53,21.20
2009,09,12,16,54,21.20
2009,09,12,16,55,21.20
2009,09,12,16,56,21.20
2009,09,12,16,57,21.20
2009,09,12,16,58,21.20
2009,09,12,16,59,21.20
2009,09,12,17,00,21.20
2009,09,12,17,01,21.30
2009,09,12,17,02,21.30
2009,09,12,17,03,21.40
2009,09,12,17,04,21.40
2009,09,12,17,05,21.40
2009,09,12,17,06,21.40
2009,09,12,17,07,21.40
2009,09,12,17,08,21.40
2009,09,12,17,09,21.40
2009,09,12,17,10,21.40
2009,09,12,17,11,21.40
2009,09,12,17,12,21.40
2009,09,12,17,13,21.30
2009,09,12,17,14,21.30
2009,09,12,17,15,21.30
2009,09,12,17,16,21.20
2009,09,12,17,17,21.10
2009,09,12,17,18,21.00
2009,09,12,17,19,20.90
2009,09,12,17,20,20.80
2009,09,12,17,21,20.80
2009,09,12,17,22,20.80
2009,09,12,17,23,20.80
2009,09,12,17,24,20.70
2009,09,12,17,25,20.70
2009,09,12,17,26,20.70
2009,09,12,17,27,20.60
2009,09,12,17,28,20.60
2009,09,12,17,29,20.50
2009,09,12,17,30,20.50
2009,09,12,17,31,20.40
2009,09,12,17,32,20.40
2009,09,12,17,33,20.40
2009,09,12,17,34,20.40
2009,09,12,17,35,20.50